Regional Weather Roundup
Issued by NWS

Home | Current Version | Previous Version | Graphics & Text | Print | Product List | Glossary On
Versions: 1 2 3 4 5 6 7 8 9 10 11 12 13 14 15 16 17 18 19 20 21 22 23 24 25 26 27 28 29 30 31 32 33 34 35 36 37 38 39 40 41 42 43 44 45 46 47 48 49 50
000
ASUS45 KSLC 010310
RWRUT

UTAH REGIONAL WEATHER ROUNDUP
NATIONAL WEATHER SERVICE SALT LAKE CITY UT
900 PM MDT SUN AUG 31 2014

UTZ001>011-023>025-010400-

NORTHERN UTAH

CITY           SKY/WX    TMP DP  RH WIND       PRES   REMARKS
HILL AFB       CLEAR     63  33  33 SE8       30.02S
LOGAN          CLEAR     62  44  51 S5        29.99S
OGDEN          CLEAR     67  33  28 E5        29.99S
PROVO AIRPORT  CLEAR     66  36  32 NW7       30.01S
SALT LAKE CITY CLEAR     69  33  26 CALM      29.98F
VERNAL         CLEAR     65  37  35 N5        30.00R
WENDOVER       CLEAR     73  37  27 E6        29.97R
HEBER CITY     CLEAR     59  36  41 E5        30.07R
WEST JORDAN    CLEAR     64  43  45 SW7       30.02S

$$

UTZ012>022-026-027-010400-

SOUTHERN UTAH

CITY           SKY/WX    TMP DP  RH WIND       PRES   REMARKS
BRYCE CANYON   CLEAR     57  32  38 W9        30.17R
CEDAR CITY     CLEAR     69  29  22 N3        30.01R
MILFORD        CLEAR     69  35  28 N8        29.97R
MOAB/CYNLANDS  CLEAR     77  26  15 NW9       29.89R
PRICE          CLEAR     67  32  27 N7        30.05R
ST GEORGE      CLEAR     90  34  13 W8        29.82R
KANAB            N/A     73  32  21 CALM      30.00R

$$

REGIONAL REPORTS     COLORADO/ARIZONA

CITY           SKY/WX    TMP DP  RH WIND       PRES   REMARKS
CRAIG, CO      MOCLDY    58  43  57 SW6       30.06R
GRAND JUNCTION CLEAR     70  39  32 W10       29.91R
RIFLE          CLEAR     70  37  29 NW6       29.97R
MONTROSE       PTCLDY    67  41  38 NE5       29.99R
CORTEZ         CLEAR     72  36  26 VRB3      30.02R
PAGE, AZ       CLEAR     89  29  11 W6        29.89R
GRAND CANYON     N/A    N/A N/A N/A MISG        N/A
KINGMAN        CLEAR     83  34  17 S10       29.89R
FLAGSTAFF      CLEAR     64  41  42 SW5       30.20R

$$

REGIONAL REPORTS    NEVADA/IDAHO/WYOMING

CITY           SKY/WX    TMP DP  RH WIND       PRES   REMARKS
LAS VEGAS, NV  CLEAR     99  30   9 SW5       29.69R HX  93
ELY            CLEAR     65  31  28 NW7       30.06S
ELKO           CLEAR     69  32  25 NW3       30.01R
POCATELLO, ID  CLEAR     57  33  40 S6        30.01S
BURLEY         CLEAR     59  44  57 W3        29.99R
EVANSTON, WY   PTCLDY    52  27  38 W8        30.15R
ROCK SPRINGS   CLEAR     56  32  40 CALM      30.10R

$$



USA.gov is the U.S. government's official web portal to all federal, state and local government web resources and services.